^^
Datos históricos de la estación: Murcia-Puente Tocinos
 
Diario Informe para Julio 17, 2019 Unidades:  Métrico    Inglés   Ambas
Diario Semanal Mensual Anual Configurable
  Actual: Máximo: Mínimo: Media:
Temperatura: 30.8 °C 31.5 °C 23.4 °C 27.2 °C
Punto de rocio: 14.8 °C 19.6 °C 13.9 °C 17.4 °C
Humedad: 38% 75% 35% 58%
Velocidad viento: 16.4km/h 21.7km/h 0.0km/h 8.4km/h
Racha viento: 20.4km/h 37.0km/h - -
VientoENE - - SE
Presión: 1009.9 hPa 1013.8 hPa 1009.6 hPa -
Precipitación: 0.0 mm      
Historical Graphs
 
 
Tabla de datos para Julio 17, 2019
Hora Temperatura Punto de rocio Presión Viento Velocidad viento Racha viento Humedad Intensidad lluvia(por hora) Nubes
00:04 25.3 °C 19.4 °C 1013.7 hPa NE 6.9 km/h 7.4 km/h 70% 0.0 mm CLR
00:09 25.3 °C 19.2 °C 1013.7 hPa ENE 4.7 km/h 5.6 km/h 69% 0.0 mm CLR
00:14 25.3 °C 19.2 °C 1013.7 hPa NNE 4.7 km/h 6.9 km/h 69% 0.0 mm CLR
00:19 25.3 °C 19.4 °C 1013.6 hPa NE 4.7 km/h 7.4 km/h 70% 0.0 mm CLR
00:24 25.3 °C 19.4 °C 1013.6 hPa NE 4.7 km/h 7.4 km/h 70% 0.0 mm CLR
00:29 25.2 °C 19.3 °C 1013.6 hPa NE 5.0 km/h 7.6 km/h 70% 0.0 mm CLR
00:34 25.2 °C 19.3 °C 1013.8 hPa NE 5.0 km/h 5.6 km/h 70% 0.0 mm CLR
00:39 25.1 °C 19.2 °C 1013.8 hPa ENE 5.0 km/h 7.4 km/h 70% 0.0 mm CLR
00:44 25.1 °C 19.2 °C 1013.8 hPa NE 5.0 km/h 5.6 km/h 70% 0.0 mm CLR
00:49 25.1 °C 19.4 °C 1013.6 hPa North 3.2 km/h 4.7 km/h 71% 0.0 mm CLR
00:54 25.1 °C 19.4 °C 1013.6 hPa NE 3.2 km/h 8.7 km/h 71% 0.0 mm CLR
00:59 25.0 °C 19.4 °C 1013.6 hPa NE 4.7 km/h 7.4 km/h 71% 0.0 mm CLR
01:04 25.0 °C 19.4 °C 1013.6 hPa NE 4.7 km/h 5.8 km/h 71% 0.0 mm CLR
01:09 25.0 °C 19.4 °C 1013.6 hPa NE 3.9 km/h 7.4 km/h 71% 0.0 mm CLR
01:14 25.0 °C 19.4 °C 1013.6 hPa NE 3.9 km/h 7.4 km/h 71% 0.0 mm CLR
01:19 25.0 °C 19.6 °C 1013.5 hPa NE 5.0 km/h 9.3 km/h 72% 0.0 mm CLR
01:24 25.0 °C 19.6 °C 1013.5 hPa ENE 5.0 km/h 5.0 km/h 72% 0.0 mm CLR
01:29 25.1 °C 19.4 °C 1013.5 hPa ENE 5.0 km/h 7.4 km/h 71% 0.0 mm CLR
01:34 25.1 °C 19.4 °C 1013.4 hPa NE 5.0 km/h 7.4 km/h 71% 0.0 mm CLR
01:39 25.1 °C 19.4 °C 1013.4 hPa NE 4.7 km/h 7.6 km/h 71% 0.0 mm CLR
01:44 25.0 °C 19.6 °C 1013.4 hPa North 4.7 km/h 5.6 km/h 72% 0.0 mm CLR
01:49 24.9 °C 19.5 °C 1013.2 hPa ENE 5.0 km/h 5.6 km/h 72% 0.0 mm CLR
01:54 25.0 °C 19.6 °C 1013.2 hPa ENE 5.0 km/h 5.6 km/h 72% 0.0 mm CLR
01:59 24.9 °C 19.5 °C 1013.2 hPa NE 3.2 km/h 5.6 km/h 72% 0.0 mm CLR
02:04 24.9 °C 19.3 °C 1013.2 hPa ENE 3.2 km/h 3.9 km/h 71% 0.0 mm CLR
02:09 24.9 °C 19.5 °C 1013.2 hPa East 2.9 km/h   72% 0.0 mm CLR
02:14 24.9 °C 19.5 °C 1013.2 hPa East 2.9 km/h   72% 0.0 mm CLR
02:19 24.9 °C 19.5 °C 1013.1 hPa Calm     72% 0.0 mm CLR
02:24 24.8 °C 19.4 °C 1013.1 hPa Calm   5.6 km/h 72% 0.0 mm CLR
02:29 24.8 °C 19.4 °C 1013.1 hPa NNW 2.3 km/h 3.7 km/h 72% 0.0 mm CLR
02:34 24.7 °C 19.3 °C 1013.1 hPa NNW 2.3 km/h 5.6 km/h 72% 0.0 mm CLR
02:39 24.6 °C 19.4 °C 1013.1 hPa NNW 2.9 km/h   73% 0.0 mm CLR
02:44 24.6 °C 19.4 °C 1013.1 hPa NNW 2.9 km/h 5.6 km/h 73% 0.0 mm CLR
02:49 24.5 °C 19.3 °C 1012.9 hPa NW 2.3 km/h 3.7 km/h 73% 0.0 mm CLR
02:54 24.4 °C 19.2 °C 1012.9 hPa NW 2.3 km/h 3.7 km/h 73% 0.0 mm CLR
02:59 24.4 °C 19.2 °C 1012.9 hPa NW 2.3 km/h   73% 0.0 mm CLR
03:04 24.4 °C 19.2 °C 1012.7 hPa NW 2.3 km/h 5.6 km/h 73% 0.0 mm CLR
03:09 24.4 °C 19.2 °C 1012.7 hPa Calm     73% 0.0 mm CLR
03:14 24.3 °C 19.2 °C 1012.7 hPa Calm     73% 0.0 mm CLR
03:19 24.3 °C 19.2 °C 1012.7 hPa Calm   3.2 km/h 73% 0.0 mm CLR
03:24 24.3 °C 19.2 °C 1012.7 hPa Calm     73% 0.0 mm CLR
03:29 24.3 °C 19.2 °C 1012.7 hPa Calm     73% 0.0 mm CLR
03:34 24.2 °C 19.1 °C 1012.7 hPa Calm     73% 0.0 mm CLR
03:39 24.2 °C 19.1 °C 1012.7 hPa Calm     73% 0.0 mm CLR
03:44 24.2 °C 19.1 °C 1012.7 hPa Calm     73% 0.0 mm CLR
03:49 24.2 °C 19.1 °C 1012.6 hPa Calm     73% 0.0 mm CLR
03:54 24.2 °C 19.1 °C 1012.6 hPa Calm   1.9 km/h 73% 0.0 mm CLR
03:59 24.2 °C 19.1 °C 1012.6 hPa Calm     73% 0.0 mm CLR
04:04 24.3 °C 19.2 °C 1012.5 hPa Calm   5.8 km/h 73% 0.0 mm CLR
04:09 24.2 °C 19.1 °C 1012.5 hPa NNW 2.9 km/h 3.7 km/h 73% 0.0 mm CLR
04:14 24.2 °C 19.1 °C 1012.5 hPa NNW 2.9 km/h 5.6 km/h 73% 0.0 mm CLR
04:19 24.1 °C 18.9 °C 1012.4 hPa NW 3.2 km/h 5.0 km/h 73% 0.0 mm CLR
04:24 24.0 °C 19.1 °C 1012.4 hPa NNE 3.2 km/h 4.7 km/h 74% 0.0 mm CLR
04:29 23.9 °C 19.0 °C 1012.4 hPa NNE 2.9 km/h 3.7 km/h 74% 0.0 mm CLR
04:34 23.8 °C 18.9 °C 1012.3 hPa NW 2.9 km/h 3.7 km/h 74% 0.0 mm CLR
04:39 23.8 °C 18.9 °C 1012.3 hPa NW 2.3 km/h   74% 0.0 mm CLR
04:44 23.8 °C 18.9 °C 1012.3 hPa NW 2.3 km/h 3.2 km/h 74% 0.0 mm CLR
04:49 23.8 °C 18.9 °C 1012.3 hPa Calm     74% 0.0 mm CLR
04:54 23.8 °C 18.9 °C 1012.3 hPa Calm   5.6 km/h 74% 0.0 mm CLR
04:59 23.8 °C 18.9 °C 1012.3 hPa SSE 2.9 km/h 9.3 km/h 74% 0.0 mm CLR
05:04 23.8 °C 19.1 °C 1012.2 hPa South 2.9 km/h 7.4 km/h 75% 0.0 mm CLR
05:09 23.8 °C 19.1 °C 1012.2 hPa SSE 4.7 km/h 7.4 km/h 75% 0.0 mm CLR
05:14 23.8 °C 19.1 °C 1012.2 hPa SSE 4.7 km/h 7.4 km/h 75% 0.0 mm CLR
05:19 23.8 °C 19.1 °C 1012.1 hPa SW 3.9 km/h 7.4 km/h 75% 0.0 mm CLR
05:24 23.8 °C 19.1 °C 1012.1 hPa WSW 3.9 km/h 7.4 km/h 75% 0.0 mm CLR
05:29 23.8 °C 18.9 °C 1012.1 hPa West 3.9 km/h 7.4 km/h 74% 0.0 mm CLR
05:34 23.8 °C 18.9 °C 1012.1 hPa WSW 3.9 km/h 7.4 km/h 74% 0.0 mm CLR
05:39 23.8 °C 19.1 °C 1012.1 hPa SSW 4.7 km/h 5.6 km/h 75% 0.0 mm CLR
05:44 23.7 °C 19.0 °C 1012.1 hPa WSW 4.7 km/h 7.4 km/h 75% 0.0 mm CLR
05:49 23.7 °C 18.8 °C 1012.0 hPa SW 3.9 km/h 5.6 km/h 74% 0.0 mm CLR
05:54 23.8 °C 18.9 °C 1012.0 hPa WSW 3.9 km/h   74% 0.0 mm CLR
05:59 23.8 °C 18.9 °C 1012.0 hPa WSW 2.3 km/h   74% 0.0 mm CLR
06:04 23.8 °C 18.9 °C 1012.0 hPa WNW 2.3 km/h 3.7 km/h 74% 0.0 mm CLR
06:09 23.7 °C 18.8 °C 1012.0 hPa Calm   2.3 km/h 74% 0.0 mm CLR
06:14 23.7 °C 18.8 °C 1012.0 hPa Calm   5.0 km/h 74% 0.0 mm CLR
06:19 23.6 °C 18.9 °C 1011.7 hPa ESE 3.2 km/h 5.6 km/h 75% 0.0 mm CLR
06:24 23.6 °C 18.9 °C 1011.7 hPa SE 3.2 km/h 6.9 km/h 75% 0.0 mm CLR
06:29 23.4 °C 18.7 °C 1011.7 hPa SSE 3.9 km/h 5.6 km/h 75% 0.0 mm CLR
06:34 23.4 °C 18.7 °C 1011.9 hPa SSW 3.9 km/h 7.4 km/h 75% 0.0 mm CLR
06:39 23.4 °C 18.7 °C 1011.9 hPa South 4.7 km/h 7.4 km/h 75% 0.0 mm CLR
06:44 23.4 °C 18.7 °C 1011.9 hPa SSE 4.7 km/h 9.3 km/h 75% 0.0 mm CLR
06:49 23.4 °C 18.7 °C 1012.0 hPa South 5.8 km/h 7.4 km/h 75% 0.0 mm CLR
06:54 23.4 °C 18.7 °C 1012.0 hPa South 5.8 km/h 7.4 km/h 75% 0.0 mm CLR
06:59 23.4 °C 18.7 °C 1012.0 hPa SW 4.7 km/h 7.4 km/h 75% 0.0 mm CLR
07:04 23.4 °C 18.7 °C 1012.0 hPa SSW 4.7 km/h 11.1 km/h 75% 0.0 mm CLR
07:09 23.5 °C 18.8 °C 1012.0 hPa SSW 5.8 km/h 8.4 km/h 75% 0.0 mm CLR
07:14 23.5 °C 18.8 °C 1012.0 hPa SSW 5.8 km/h 7.4 km/h 75% 0.0 mm CLR
07:19 23.5 °C 18.8 °C 1012.1 hPa WSW 4.7 km/h 8.4 km/h 75% 0.0 mm CLR
07:24 23.4 °C 18.7 °C 1012.1 hPa WSW 4.7 km/h 9.3 km/h 75% 0.0 mm CLR
07:29 23.4 °C 18.7 °C 1012.1 hPa SW 5.8 km/h 11.1 km/h 75% 0.0 mm CLR
07:34 23.4 °C 18.7 °C 1012.2 hPa SW 5.8 km/h 7.4 km/h 75% 0.0 mm CLR
07:39 23.5 °C 18.6 °C 1012.2 hPa West 5.8 km/h 7.4 km/h 74% 0.0 mm CLR
07:44 23.6 °C 18.7 °C 1012.2 hPa WNW 5.8 km/h 7.4 km/h 74% 0.0 mm CLR
07:49 23.6 °C 18.5 °C 1012.3 hPa WSW 4.7 km/h 7.4 km/h 73% 0.0 mm CLR
07:54 23.6 °C 18.5 °C 1012.3 hPa WSW 4.7 km/h 9.3 km/h 73% 0.0 mm CLR
07:59 23.6 °C 18.5 °C 1012.3 hPa SW 5.8 km/h 7.4 km/h 73% 0.0 mm CLR
08:04 23.6 °C 18.5 °C 1012.5 hPa WSW 5.8 km/h 7.4 km/h 73% 0.0 mm CLR
08:09 23.7 °C 18.3 °C 1012.5 hPa SW 4.7 km/h 9.3 km/h 72% 0.0 mm CLR
08:14 23.8 °C 18.4 °C 1012.5 hPa SSW 4.7 km/h 7.4 km/h 72% 0.0 mm CLR
08:19 23.9 °C 18.3 °C 1012.5 hPa SW 4.7 km/h 8.4 km/h 71% 0.0 mm CLR
08:24 24.0 °C 18.2 °C 1012.5 hPa WSW 4.7 km/h 7.4 km/h 70% 0.0 mm CLR
08:29 24.1 °C 18.3 °C 1012.5 hPa West 5.0 km/h 7.4 km/h 70% 0.0 mm CLR
08:34 24.1 °C 18.3 °C 1012.5 hPa WNW 5.0 km/h 7.4 km/h 70% 0.0 mm CLR
08:39 24.2 °C 17.9 °C 1012.5 hPa WNW 5.0 km/h 9.3 km/h 68% 0.0 mm CLR
08:44 24.3 °C 18.2 °C 1012.5 hPa West 5.0 km/h 7.4 km/h 69% 0.0 mm CLR
08:49 24.3 °C 18.2 °C 1012.5 hPa West 4.7 km/h 7.4 km/h 69% 0.0 mm CLR
08:54 24.4 °C 18.1 °C 1012.5 hPa WNW 4.7 km/h 7.4 km/h 68% 0.0 mm CLR
08:59 24.6 °C 18.3 °C 1012.5 hPa West 3.9 km/h 7.4 km/h 68% 0.0 mm CLR
09:04 24.7 °C 18.2 °C 1012.5 hPa SSW 3.9 km/h 7.4 km/h 67% 0.0 mm CLR
09:09 24.9 °C 18.3 °C 1012.5 hPa South 3.9 km/h 7.4 km/h 67% 0.0 mm CLR
09:14 25.1 °C 18.3 °C 1012.5 hPa WSW 3.9 km/h 5.8 km/h 66% 0.0 mm CLR
09:19 25.3 °C 18.2 °C 1012.6 hPa SSW 3.9 km/h 9.3 km/h 65% 0.0 mm CLR
09:24 25.4 °C 18.1 °C 1012.6 hPa SW 3.9 km/h 7.6 km/h 64% 0.0 mm CLR
09:29 25.6 °C 18.1 °C 1012.6 hPa NW 3.9 km/h 6.9 km/h 63% 0.0 mm CLR
09:34 25.7 °C 18.1 °C 1012.5 hPa West 3.9 km/h 7.6 km/h 63% 0.0 mm CLR
09:39 25.8 °C 18.2 °C 1012.5 hPa West 4.7 km/h 5.6 km/h 63% 0.0 mm CLR
09:44 25.9 °C 17.8 °C 1012.5 hPa West 4.7 km/h 11.1 km/h 61% 0.0 mm CLR
09:49 26.0 °C 17.6 °C 1012.6 hPa SSW 5.0 km/h 9.3 km/h 60% 0.0 mm CLR
09:54 26.3 °C 18.2 °C 1012.6 hPa SSE 5.0 km/h 7.4 km/h 61% 0.0 mm CLR
09:59 26.3 °C 18.2 °C 1012.6 hPa South 5.0 km/h 7.4 km/h 61% 0.0 mm CLR
10:04 26.3 °C 18.2 °C 1012.5 hPa SSE 5.0 km/h 11.1 km/h 61% 0.0 mm CLR
10:09 26.4 °C 18.3 °C 1012.5 hPa SE 4.7 km/h 7.4 km/h 61% 0.0 mm CLR
10:14 26.7 °C 18.3 °C 1012.5 hPa SSE 4.7 km/h 5.6 km/h 60% 0.0 mm CLR
10:19 26.9 °C 17.9 °C 1012.6 hPa SSE 4.7 km/h 7.4 km/h 58% 0.0 mm CLR
10:24 27.1 °C 17.6 °C 1012.6 hPa ESE 4.7 km/h 10.0 km/h 56% 0.0 mm CLR
10:29 27.2 °C 17.7 °C 1012.6 hPa ENE 6.9 km/h 9.3 km/h 56% 0.0 mm CLR
10:34 27.2 °C 17.1 °C 1012.7 hPa SW 6.9 km/h 5.6 km/h 54% 0.0 mm CLR
10:39 27.6 °C 17.2 °C 1012.7 hPa ESE 3.2 km/h 9.5 km/h 53% 0.0 mm CLR
10:44 27.9 °C 16.5 °C 1012.7 hPa East 3.2 km/h 7.6 km/h 50% 0.0 mm CLR
10:49 27.9 °C 16.2 °C 1012.7 hPa NE 6.9 km/h 9.3 km/h 49% 0.0 mm CLR
10:54 28.1 °C 16.7 °C 1012.7 hPa ENE 6.9 km/h 9.3 km/h 50% 0.0 mm CLR
10:59 28.3 °C 16.6 °C 1012.7 hPa ESE 5.8 km/h 16.7 km/h 49% 0.0 mm CLR
11:04 28.3 °C 16.2 °C 1012.6 hPa ESE 5.8 km/h 14.8 km/h 48% 0.0 mm CLR
11:09 28.3 °C 15.9 °C 1012.6 hPa ENE 8.7 km/h 7.6 km/h 47% 0.0 mm CLR
11:14 28.4 °C 15.7 °C 1012.6 hPa NNE 8.7 km/h 9.3 km/h 46% 0.0 mm CLR
11:19 28.7 °C 15.9 °C 1012.6 hPa ESE 5.8 km/h 7.4 km/h 46% 0.0 mm CLR
11:24 29.1 °C 15.9 °C 1012.6 hPa NNW 5.8 km/h 7.4 km/h 45% 0.0 mm CLR
11:29 29.3 °C 15.8 °C 1012.6 hPa East 6.4 km/h 11.1 km/h 44% 0.0 mm CLR
11:34 29.2 °C 15.7 °C 1012.6 hPa NE 6.4 km/h 17.2 km/h 44% 0.0 mm CLR
11:39 29.1 °C 15.6 °C 1012.6 hPa NNW 9.5 km/h 9.3 km/h 44% 0.0 mm CLR
11:44 29.2 °C 15.3 °C 1012.6 hPa East 9.5 km/h 7.4 km/h 43% 0.0 mm CLR
11:49 29.6 °C 14.6 °C 1012.5 hPa NE 5.0 km/h 14.0 km/h 40% 0.0 mm CLR
11:54 29.8 °C 14.3 °C 1012.5 hPa NNE 5.0 km/h 11.1 km/h 39% 0.0 mm CLR
11:59 29.9 °C 14.4 °C 1012.5 hPa ENE 7.6 km/h 19.0 km/h 39% 0.0 mm CLR
12:04 29.8 °C 14.7 °C 1012.4 hPa ENE 7.6 km/h 14.0 km/h 40% 0.0 mm CLR
12:09 30.1 °C 15.4 °C 1012.4 hPa NNE 10.3 km/h 11.1 km/h 41% 0.0 mm CLR
12:14 30.0 °C 14.6 °C 1012.4 hPa East 10.3 km/h 20.4 km/h 39% 0.0 mm CLR
12:19 30.3 °C 15.2 °C 1012.3 hPa NE 11.1 km/h 18.0 km/h 40% 0.0 mm CLR
12:24 30.3 °C 15.9 °C 1012.3 hPa ENE 11.1 km/h 18.5 km/h 42% 0.0 mm CLR
12:29 30.2 °C 15.9 °C 1012.3 hPa NE 13.0 km/h 16.4 km/h 42% 0.0 mm CLR
12:34 30.2 °C 15.1 °C 1012.4 hPa NE 13.0 km/h 22.2 km/h 40% 0.0 mm CLR
12:39 30.2 °C 14.7 °C 1012.4 hPa North 13.7 km/h 23.7 km/h 39% 0.0 mm CLR
12:44 30.3 °C 14.0 °C 1012.4 hPa ENE 13.7 km/h 27.8 km/h 37% 0.0 mm CLR
12:49 30.4 °C 14.5 °C 1012.2 hPa NE 16.1 km/h 18.5 km/h 38% 0.0 mm CLR
12:54 30.5 °C 15.0 °C 1012.2 hPa ENE 16.1 km/h 18.5 km/h 39% 0.0 mm CLR
12:59 30.4 °C 15.7 °C 1012.2 hPa NNE 13.7 km/h 20.9 km/h 41% 0.0 mm CLR
13:04 30.4 °C 16.1 °C 1012.0 hPa East 13.7 km/h 20.4 km/h 42% 0.0 mm CLR
13:09 30.4 °C 16.1 °C 1012.0 hPa ENE 14.0 km/h 20.4 km/h 42% 0.0 mm CLR
13:14 30.4 °C 16.4 °C 1012.0 hPa NE 14.0 km/h 20.1 km/h 43% 0.0 mm CLR
13:19 30.7 °C 16.3 °C 1011.9 hPa ENE 14.0 km/h 22.2 km/h 42% 0.0 mm CLR
13:24 30.6 °C 16.6 °C 1011.9 hPa NE 14.0 km/h 27.0 km/h 43% 0.0 mm CLR
13:29 30.4 °C 16.4 °C 1011.9 hPa NE 18.3 km/h 35.2 km/h 43% 0.0 mm CLR
13:34 30.6 °C 16.2 °C 1011.6 hPa East 18.3 km/h 16.7 km/h 42% 0.0 mm CLR
13:39 30.8 °C 16.4 °C 1011.6 hPa NNE 16.1 km/h 27.8 km/h 42% 0.0 mm CLR
13:44 30.9 °C 16.5 °C 1011.6 hPa NNE 16.1 km/h 20.4 km/h 42% 0.0 mm CLR
13:49 31.1 °C 16.7 °C 1011.6 hPa ENE 14.8 km/h 18.5 km/h 42% 0.0 mm CLR
13:54 31.1 °C 16.3 °C 1011.6 hPa ENE 14.8 km/h 27.8 km/h 41% 0.0 mm CLR
13:59 30.9 °C 16.1 °C 1011.6 hPa NNE 17.2 km/h 33.3 km/h 41% 0.0 mm CLR
14:04 31.1 °C 16.3 °C 1011.4 hPa ENE 17.2 km/h 27.8 km/h 41% 0.0 mm CLR
14:09 31.1 °C 15.9 °C 1011.4 hPa NE 16.1 km/h 37.0 km/h 40% 0.0 mm CLR
14:14 31.1 °C 16.3 °C 1011.4 hPa NE 16.1 km/h 29.6 km/h 41% 0.0 mm CLR
14:19 30.9 °C 15.7 °C 1011.4 hPa NE 19.0 km/h 27.8 km/h 40% 0.0 mm CLR
14:24 30.9 °C 16.5 °C 1011.4 hPa NE 19.0 km/h 14.8 km/h 42% 0.0 mm CLR
14:29 31.0 °C 16.2 °C 1011.4 hPa NE 16.4 km/h 22.2 km/h 41% 0.0 mm CLR
14:34 31.1 °C 16.3 °C 1011.3 hPa NE 16.4 km/h 29.6 km/h 41% 0.0 mm CLR
14:39 30.8 °C 15.7 °C 1011.3 hPa NE 18.3 km/h 20.4 km/h 40% 0.0 mm CLR
14:44 31.1 °C 15.5 °C 1011.3 hPa NE 18.3 km/h 25.6 km/h 39% 0.0 mm CLR
14:49 31.1 °C 15.9 °C 1011.2 hPa NE 15.6 km/h 22.2 km/h 40% 0.0 mm CLR
14:54 30.8 °C 15.7 °C 1011.2 hPa ENE 15.6 km/h 27.8 km/h 40% 0.0 mm CLR
14:59 31.1 °C 15.5 °C 1011.2 hPa NNE 16.4 km/h 25.1 km/h 39% 0.0 mm CLR
15:04 31.2 °C 15.6 °C 1011.1 hPa NE 16.4 km/h 20.4 km/h 39% 0.0 mm CLR
15:09 31.0 °C 15.8 °C 1011.1 hPa NE 16.1 km/h 29.6 km/h 40% 0.0 mm CLR
15:14 30.9 °C 14.9 °C 1011.1 hPa NNE 16.1 km/h 29.6 km/h 38% 0.0 mm CLR
15:19 31.1 °C 15.9 °C 1010.9 hPa NE 18.3 km/h 25.6 km/h 40% 0.0 mm CLR
15:24 31.4 °C 15.4 °C 1010.9 hPa NNE 18.3 km/h 22.2 km/h 38% 0.0 mm CLR
15:29 31.1 °C 15.9 °C 1010.9 hPa NE 15.6 km/h 31.5 km/h 40% 0.0 mm CLR
15:34 31.1 °C 14.7 °C 1010.8 hPa NE 15.6 km/h 27.8 km/h 37% 0.0 mm CLR
15:39 31.2 °C 15.2 °C 1010.8 hPa ESE 16.4 km/h 29.6 km/h 38% 0.0 mm CLR
15:44 31.3 °C 15.7 °C 1010.8 hPa NNE 16.4 km/h 26.2 km/h 39% 0.0 mm CLR
15:49 31.4 °C 16.2 °C 1010.7 hPa ENE 14.8 km/h 27.8 km/h 40% 0.0 mm CLR
15:54 31.3 °C 15.7 °C 1010.7 hPa NE 14.8 km/h 29.6 km/h 39% 0.0 mm CLR
15:59 31.0 °C 15.0 °C 1010.7 hPa NNE 20.1 km/h 35.2 km/h 38% 0.0 mm CLR
16:04 31.0 °C 15.8 °C 1010.6 hPa NE 20.1 km/h 33.3 km/h 40% 0.0 mm CLR
16:09 30.9 °C 16.1 °C 1010.6 hPa NNE 21.7 km/h 27.8 km/h 41% 0.0 mm CLR
16:14 31.0 °C 16.6 °C 1010.6 hPa NNE 21.7 km/h 24.1 km/h 42% 0.0 mm CLR
16:19 31.3 °C 16.1 °C 1010.4 hPa ENE 18.3 km/h 27.0 km/h 40% 0.0 mm CLR
16:24 31.1 °C 16.7 °C 1010.4 hPa ENE 18.3 km/h 26.2 km/h 42% 0.0 mm CLR
16:29 31.0 °C 16.6 °C 1010.4 hPa NE 19.0 km/h 25.9 km/h 42% 0.0 mm CLR
16:34 31.2 °C 16.4 °C 1010.2 hPa NE 19.0 km/h 29.6 km/h 41% 0.0 mm CLR
16:39 31.3 °C 15.7 °C 1010.2 hPa ENE 16.4 km/h 25.9 km/h 39% 0.0 mm CLR
16:44 31.3 °C 15.3 °C 1010.2 hPa NE 16.4 km/h 22.2 km/h 38% 0.0 mm CLR
16:49 31.5 °C 15.4 °C 1010.3 hPa NE 14.8 km/h 24.1 km/h 38% 0.0 mm CLR
16:54 31.1 °C 15.1 °C 1010.3 hPa East 14.8 km/h 22.5 km/h 38% 0.0 mm CLR
16:59 31.3 °C 15.3 °C 1010.3 hPa ENE 17.2 km/h 22.2 km/h 38% 0.0 mm CLR
17:04 31.3 °C 14.9 °C 1010.1 hPa ENE 17.2 km/h 31.5 km/h 37% 0.0 mm CLR
17:09 31.3 °C 15.3 °C 1010.1 hPa NE 16.1 km/h 26.2 km/h 38% 0.0 mm CLR
17:14 31.3 °C 15.3 °C 1010.1 hPa NE 16.1 km/h 26.2 km/h 38% 0.0 mm CLR
17:19 31.2 °C 15.2 °C 1010.1 hPa NNE 16.1 km/h 24.1 km/h 38% 0.0 mm CLR
17:24 31.3 °C 15.3 °C 1010.1 hPa NE 16.1 km/h 16.7 km/h 38% 0.0 mm CLR
17:29 31.3 °C 15.3 °C 1010.1 hPa NE 14.8 km/h 22.2 km/h 38% 0.0 mm CLR
17:34 31.2 °C 15.2 °C 1009.8 hPa NE 14.8 km/h 33.3 km/h 38% 0.0 mm CLR
17:39 31.3 °C 14.9 °C 1009.8 hPa North 14.8 km/h 29.6 km/h 37% 0.0 mm CLR
17:44 31.3 °C 14.0 °C 1009.8 hPa ENE 14.8 km/h 24.1 km/h 35% 0.0 mm CLR
17:49 31.3 °C 14.9 °C 1009.8 hPa East 15.6 km/h 24.5 km/h 37% 0.0 mm CLR
17:54 31.2 °C 14.3 °C 1009.8 hPa NE 15.6 km/h 16.7 km/h 36% 0.0 mm CLR
17:59 31.2 °C 13.9 °C 1009.8 hPa NE 17.2 km/h 29.6 km/h 35% 0.0 mm CLR
18:04 31.3 °C 14.9 °C 1009.6 hPa ENE 17.2 km/h 20.1 km/h 37% 0.0 mm CLR
18:09 31.4 °C 14.6 °C 1009.6 hPa NE 16.4 km/h 27.8 km/h 36% 0.0 mm CLR
18:14 31.3 °C 14.0 °C 1009.6 hPa NE 16.4 km/h 29.6 km/h 35% 0.0 mm CLR
18:19 31.2 °C 15.2 °C 1009.7 hPa East 18.0 km/h 27.8 km/h 38% 0.0 mm CLR
18:24 31.1 °C 15.1 °C 1009.7 hPa NE 18.0 km/h 29.6 km/h 38% 0.0 mm CLR
18:29 31.1 °C 14.7 °C 1009.7 hPa NNE 18.0 km/h 25.9 km/h 37% 0.0 mm CLR
18:34 30.9 °C 14.9 °C 1009.7 hPa ENE 18.0 km/h 27.8 km/h 38% 0.0 mm CLR
18:39 30.7 °C 14.8 °C 1009.7 hPa ENE 20.1 km/h 27.8 km/h 38% 0.0 mm CLR
18:44 30.8 °C 15.2 °C 1009.7 hPa ENE 20.1 km/h 22.2 km/h 39% 0.0 mm CLR
18:49 30.8 °C 14.8 °C 1009.9 hPa ENE 16.4 km/h 20.4 km/h 38% 0.0 mm CLR
Murcia-Puente Tocinos, España
Compliments of Weather Underground - 2.25 mb

La estación de MeteoMurcia.com, publica sus datos en los siguientes proyectos:

Weather Underground PWS IMURCIAP2 Meteoclimatic www.awekas.at

W3Counter
Web Analytics